Location: Hilton Head Island
(32.2163°N, 80.7526°W)
Time: 02:20:04
(UTC-04:00)

Vanguard 2 Rocket - Pass Details

Date: 21 February 2026
Orbit: 553 x 3286 km, 32.9° (Epoch: 9 March)

Event Time Altitude Azimuth Distance (km) Brightness Sun altitude
Rises 16:04:28 0° 282° (WNW) 6,938 12.1 24.7°
Reaches altitude 10° 16:09:35 10° 282° (WNW) 5,636 11.8 23.7°
Maximum altitude 16:25:22 77° 199° (SSW) 1,941 9.1 20.8°
Drops below altitude 10° 16:34:07 10° 115° (ESE) 3,311 9.5 19.2°
Sets 16:36:22 0° 113° (ESE) 4,015 9.8 18.8°
